Data supplied by UK-AIR on 31/3/2012
All Data GMT hour ending 
Status: R =Ratified P=Provisional,P*=As supplied
,,Cambridge Roadside,,,,,,,,,,,,,,,,,,,,,,,
Date,time,"Nitric oxide",status,unit,"Nitrogen dioxide",status,unit,"Nitrogen oxides as nitrogen dioxide",status,unit
 
01-01-2011,01:00,31,R,ugm-3,48,R,ugm-3,96,R,ugm-3
01-01-2011,02:00,24,R,ugm-3,44,R,ugm-3,80,R,ugm-3
01-01-2011,03:00,20,R,ugm-3,44,R,ugm-3,74,R,ugm-3
01-01-2011,04:00,20,R,ugm-3,44,R,ugm-3,74,R,ugm-3
01-01-2011,05:00,16,R,ugm-3,34,R,ugm-3,59,R,ugm-3
01-01-2011,06:00,15,R,ugm-3,31,R,ugm-3,53,R,ugm-3
01-01-2011,07:00,4,R,ugm-3,23,R,ugm-3,29,R,ugm-3
01-01-2011,08:00,8,R,ugm-3,23,R,ugm-3,34,R,ugm-3
01-01-2011,09:00,10,R,ugm-3,23,R,ugm-3,38,R,ugm-3
01-01-2011,10:00,4,R,ugm-3,23,R,ugm-3,29,R,ugm-3
01-01-2011,11:00,8,R,ugm-3,27,R,ugm-3,38,R,ugm-3
01-01-2011,12:00,8,R,ugm-3,29,R,ugm-3,40,R,ugm-3
01-01-2011,13:00,6,R,ugm-3,25,R,ugm-3,34,R,ugm-3
01-01-2011,14:00,3,R,ugm-3,19,R,ugm-3,23,R,ugm-3
01-01-2011,15:00,3,R,ugm-3,23,R,ugm-3,27,R,ugm-3
01-01-2011,16:00,3,R,ugm-3,21,R,ugm-3,25,R,ugm-3
01-01-2011,17:00,3,R,ugm-3,19,R,ugm-3,23,R,ugm-3
01-01-2011,18:00,3,R,ugm-3,23,R,ugm-3,27,R,ugm-3
01-01-2011,19:00,3,R,ugm-3,23,R,ugm-3,27,R,ugm-3
01-01-2011,20:00,3,R,ugm-3,23,R,ugm-3,27,R,ugm-3
01-01-2011,21:00,4,R,ugm-3,23,R,ugm-3,29,R,ugm-3
01-01-2011,22:00,5,R,ugm-3,23,R,ugm-3,31,R,ugm-3
01-01-2011,23:00,3,R,ugm-3,21,R,ugm-3,25,R,ugm-3
01-01-2011,24:00,4,R,ugm-3,21,R,ugm-3,27,R,ugm-3
02-01-2011,01:00,3,R,ugm-3,21,R,ugm-3,25,R,ugm-3
02-01-2011,02:00,4,R,ugm-3,19,R,ugm-3,25,R,ugm-3
02-01-2011,03:00,4,R,ugm-3,19,R,ugm-3,25,R,ugm-3
02-01-2011,04:00,4,R,ugm-3,17,R,ugm-3,23,R,ugm-3
02-01-2011,05:00,3,R,ugm-3,13,R,ugm-3,17,R,ugm-3
02-01-2011,06:00,3,R,ugm-3,11,R,ugm-3,15,R,ugm-3
02-01-2011,07:00,4,R,ugm-3,19,R,ugm-3,25,R,ugm-3
02-01-2011,08:00,6,R,ugm-3,25,R,ugm-3,34,R,ugm-3
02-01-2011,09:00,5,R,ugm-3,25,R,ugm-3,32,R,ugm-3
02-01-2011,10:00,5,R,ugm-3,23,R,ugm-3,31,R,ugm-3
02-01-2011,11:00,29,R,ugm-3,36,R,ugm-3,80,R,ugm-3
02-01-2011,12:00,29,R,ugm-3,38,R,ugm-3,82,R,ugm-3
02-01-2011,13:00,26,R,ugm-3,32,R,ugm-3,73,R,ugm-3
02-01-2011,14:00,30,R,ugm-3,38,R,ugm-3,84,R,ugm-3
02-01-2011,15:00,59,R,ugm-3,53,R,ugm-3,143,R,ugm-3
02-01-2011,16:00,61,R,ugm-3,59,R,ugm-3,153,R,ugm-3
02-01-2011,17:00,95,R,ugm-3,69,R,ugm-3,214,R,ugm-3
02-01-2011,18:00,98,R,ugm-3,76,R,ugm-3,225,R,ugm-3
02-01-2011,19:00,83,R,ugm-3,63,R,ugm-3,189,R,ugm-3
02-01-2011,20:00,39,R,ugm-3,55,R,ugm-3,115,R,ugm-3
02-01-2011,21:00,41,R,ugm-3,57,R,ugm-3,120,R,ugm-3
02-01-2011,22:00,40,R,ugm-3,59,R,ugm-3,120,R,ugm-3
02-01-2011,23:00,36,R,ugm-3,57,R,ugm-3,113,R,ugm-3
02-01-2011,24:00,28,R,ugm-3,46,R,ugm-3,88,R,ugm-3
03-01-2011,01:00,33,R,ugm-3,55,R,ugm-3,105,R,ugm-3
03-01-2011,02:00,19,R,ugm-3,48,R,ugm-3,76,R,ugm-3
03-01-2011,03:00,16,R,ugm-3,40,R,ugm-3,65,R,ugm-3
03-01-2011,04:00,15,R,ugm-3,36,R,ugm-3,59,R,ugm-3
03-01-2011,05:00,11,R,ugm-3,34,R,ugm-3,52,R,ugm-3
03-01-2011,06:00,10,R,ugm-3,34,R,ugm-3,50,R,ugm-3
03-01-2011,07:00,20,R,ugm-3,36,R,ugm-3,67,R,ugm-3
03-01-2011,08:00,43,R,ugm-3,46,R,ugm-3,111,R,ugm-3
03-01-2011,09:00,29,R,ugm-3,48,R,ugm-3,92,R,ugm-3
03-01-2011,10:00,25,R,ugm-3,46,R,ugm-3,84,R,ugm-3
03-01-2011,11:00,75,R,ugm-3,50,R,ugm-3,164,R,ugm-3
03-01-2011,12:00,53,R,ugm-3,48,R,ugm-3,128,R,ugm-3
03-01-2011,13:00,90,R,ugm-3,52,R,ugm-3,189,R,ugm-3
03-01-2011,14:00,86,R,ugm-3,53,R,ugm-3,185,R,ugm-3
03-01-2011,15:00,69,R,ugm-3,57,R,ugm-3,162,R,ugm-3
03-01-2011,16:00,85,R,ugm-3,69,R,ugm-3,199,R,ugm-3
03-01-2011,17:00,99,R,ugm-3,67,R,ugm-3,218,R,ugm-3
03-01-2011,18:00,120,R,ugm-3,84,R,ugm-3,267,R,ugm-3
03-01-2011,19:00,115,R,ugm-3,76,R,ugm-3,252,R,ugm-3
03-01-2011,20:00,53,R,ugm-3,55,R,ugm-3,136,R,ugm-3
03-01-2011,21:00,35,R,ugm-3,63,R,ugm-3,117,R,ugm-3
03-01-2011,22:00,33,R,ugm-3,55,R,ugm-3,105,R,ugm-3
03-01-2011,23:00,35,R,ugm-3,53,R,ugm-3,107,R,ugm-3
03-01-2011,24:00,34,R,ugm-3,69,R,ugm-3,120,R,ugm-3
04-01-2011,01:00,18,R,ugm-3,57,R,ugm-3,84,R,ugm-3
04-01-2011,02:00,13,R,ugm-3,55,R,ugm-3,74,R,ugm-3
04-01-2011,03:00,18,R,ugm-3,59,R,ugm-3,86,R,ugm-3
04-01-2011,04:00,13,R,ugm-3,55,R,ugm-3,74,R,ugm-3
04-01-2011,05:00,14,R,ugm-3,55,R,ugm-3,76,R,ugm-3
04-01-2011,06:00,9,R,ugm-3,46,R,ugm-3,59,R,ugm-3
04-01-2011,07:00,26,R,ugm-3,48,R,ugm-3,88,R,ugm-3
04-01-2011,08:00,31,R,ugm-3,46,R,ugm-3,94,R,ugm-3
04-01-2011,09:00,55,R,ugm-3,42,R,ugm-3,126,R,ugm-3
04-01-2011,10:00,89,R,ugm-3,50,R,ugm-3,185,R,ugm-3
04-01-2011,11:00,115,R,ugm-3,52,R,ugm-3,227,R,ugm-3
04-01-2011,12:00,76,R,ugm-3,57,R,ugm-3,174,R,ugm-3
04-01-2011,13:00,94,R,ugm-3,61,R,ugm-3,204,R,ugm-3
04-01-2011,14:00,109,R,ugm-3,69,R,ugm-3,235,R,ugm-3
04-01-2011,15:00,138,R,ugm-3,73,R,ugm-3,283,R,ugm-3
04-01-2011,16:00,101,R,ugm-3,73,R,ugm-3,227,R,ugm-3
04-01-2011,17:00,113,R,ugm-3,69,R,ugm-3,241,R,ugm-3
04-01-2011,18:00,103,R,ugm-3,71,R,ugm-3,227,R,ugm-3
04-01-2011,19:00,114,R,ugm-3,65,R,ugm-3,239,R,ugm-3
04-01-2011,20:00,74,R,ugm-3,55,R,ugm-3,168,R,ugm-3
04-01-2011,21:00,26,R,ugm-3,52,R,ugm-3,92,R,ugm-3
04-01-2011,22:00,15,R,ugm-3,34,R,ugm-3,57,R,ugm-3
04-01-2011,23:00,9,R,ugm-3,31,R,ugm-3,44,R,ugm-3
04-01-2011,24:00,13,R,ugm-3,23,R,ugm-3,42,R,ugm-3
05-01-2011,01:00,9,R,ugm-3,19,R,ugm-3,32,R,ugm-3
05-01-2011,02:00,4,R,ugm-3,21,R,ugm-3,27,R,ugm-3
05-01-2011,03:00,4,R,ugm-3,19,R,ugm-3,25,R,ugm-3
05-01-2011,04:00,4,R,ugm-3,13,R,ugm-3,19,R,ugm-3
05-01-2011,05:00,1,R,ugm-3,10,R,ugm-3,11,R,ugm-3
05-01-2011,06:00,1,R,ugm-3,10,R,ugm-3,11,R,ugm-3
05-01-2011,07:00,5,R,ugm-3,13,R,ugm-3,21,R,ugm-3
05-01-2011,08:00,13,R,ugm-3,21,R,ugm-3,40,R,ugm-3
05-01-2011,09:00,41,R,ugm-3,36,R,ugm-3,99,R,ugm-3
05-01-2011,10:00,59,R,ugm-3,50,R,ugm-3,139,R,ugm-3
05-01-2011,11:00,49,R,ugm-3,46,R,ugm-3,120,R,ugm-3
05-01-2011,12:00,50,R,ugm-3,46,R,ugm-3,122,R,ugm-3
05-01-2011,13:00,45,R,ugm-3,46,R,ugm-3,115,R,ugm-3
05-01-2011,14:00,69,R,ugm-3,48,R,ugm-3,153,R,ugm-3
05-01-2011,15:00,64,R,ugm-3,46,R,ugm-3,143,R,ugm-3
05-01-2011,16:00,73,R,ugm-3,57,R,ugm-3,168,R,ugm-3
05-01-2011,17:00,65,R,ugm-3,46,R,ugm-3,145,R,ugm-3
05-01-2011,18:00,75,R,ugm-3,55,R,ugm-3,170,R,ugm-3
05-01-2011,19:00,83,R,ugm-3,57,R,ugm-3,183,R,ugm-3
05-01-2011,20:00,74,R,ugm-3,57,R,ugm-3,170,R,ugm-3
05-01-2011,21:00,59,R,ugm-3,50,R,ugm-3,139,R,ugm-3
05-01-2011,22:00,30,R,ugm-3,42,R,ugm-3,88,R,ugm-3
05-01-2011,23:00,36,R,ugm-3,48,R,ugm-3,103,R,ugm-3
05-01-2011,24:00,40,R,ugm-3,42,R,ugm-3,103,R,ugm-3
06-01-2011,01:00,19,R,ugm-3,36,R,ugm-3,65,R,ugm-3
06-01-2011,02:00,16,R,ugm-3,36,R,ugm-3,61,R,ugm-3
06-01-2011,03:00,15,R,ugm-3,32,R,ugm-3,55,R,ugm-3
06-01-2011,04:00,6,R,ugm-3,23,R,ugm-3,32,R,ugm-3
06-01-2011,05:00,8,R,ugm-3,21,R,ugm-3,32,R,ugm-3
06-01-2011,06:00,6,R,ugm-3,23,R,ugm-3,32,R,ugm-3
06-01-2011,07:00,28,R,ugm-3,42,R,ugm-3,84,R,ugm-3
06-01-2011,08:00,88,R,ugm-3,55,R,ugm-3,189,R,ugm-3
06-01-2011,09:00,225,R,ugm-3,71,R,ugm-3,414,R,ugm-3
06-01-2011,10:00,246,R,ugm-3,84,R,ugm-3,460,R,ugm-3
06-01-2011,11:00,241,R,ugm-3,82,R,ugm-3,451,R,ugm-3
06-01-2011,12:00,168,R,ugm-3,74,R,ugm-3,330,R,ugm-3
06-01-2011,13:00,106,R,ugm-3,67,R,ugm-3,229,R,ugm-3
06-01-2011,14:00,74,R,ugm-3,65,R,ugm-3,178,R,ugm-3
06-01-2011,15:00,91,R,ugm-3,63,R,ugm-3,202,R,ugm-3
06-01-2011,16:00,90,R,ugm-3,57,R,ugm-3,195,R,ugm-3
06-01-2011,17:00,169,R,ugm-3,67,R,ugm-3,325,R,ugm-3
06-01-2011,18:00,185,R,ugm-3,74,R,ugm-3,357,R,ugm-3
06-01-2011,19:00,173,R,ugm-3,76,R,ugm-3,340,R,ugm-3
06-01-2011,20:00,165,R,ugm-3,76,R,ugm-3,329,R,ugm-3
06-01-2011,21:00,93,R,ugm-3,67,R,ugm-3,208,R,ugm-3
06-01-2011,22:00,79,R,ugm-3,69,R,ugm-3,189,R,ugm-3
06-01-2011,23:00,121,R,ugm-3,71,R,ugm-3,256,R,ugm-3
06-01-2011,24:00,104,R,ugm-3,67,R,ugm-3,225,R,ugm-3
07-01-2011,01:00,93,R,ugm-3,67,R,ugm-3,208,R,ugm-3
07-01-2011,02:00,93,R,ugm-3,65,R,ugm-3,206,R,ugm-3
07-01-2011,03:00,30,R,ugm-3,57,R,ugm-3,103,R,ugm-3
07-01-2011,04:00,11,R,ugm-3,42,R,ugm-3,59,R,ugm-3
07-01-2011,05:00,9,R,ugm-3,40,R,ugm-3,53,R,ugm-3
07-01-2011,06:00,9,R,ugm-3,38,R,ugm-3,52,R,ugm-3
07-01-2011,07:00,8,R,ugm-3,40,R,ugm-3,52,R,ugm-3
07-01-2011,08:00,18,R,ugm-3,42,R,ugm-3,69,R,ugm-3
07-01-2011,09:00,31,R,ugm-3,42,R,ugm-3,90,R,ugm-3
07-01-2011,10:00,46,R,ugm-3,44,R,ugm-3,115,R,ugm-3
07-01-2011,11:00,61,R,ugm-3,52,R,ugm-3,145,R,ugm-3
07-01-2011,12:00,38,R,ugm-3,42,R,ugm-3,99,R,ugm-3
07-01-2011,13:00,,,,,,,,,
07-01-2011,14:00,121,R,ugm-3,61,R,ugm-3,246,R,ugm-3
07-01-2011,15:00,136,R,ugm-3,69,R,ugm-3,277,R,ugm-3
07-01-2011,16:00,154,R,ugm-3,65,R,ugm-3,300,R,ugm-3
07-01-2011,17:00,138,R,ugm-3,71,R,ugm-3,281,R,ugm-3
07-01-2011,18:00,158,R,ugm-3,78,R,ugm-3,319,R,ugm-3
07-01-2011,19:00,96,R,ugm-3,74,R,ugm-3,222,R,ugm-3
07-01-2011,20:00,41,R,ugm-3,53,R,ugm-3,117,R,ugm-3
07-01-2011,21:00,21,R,ugm-3,38,R,ugm-3,71,R,ugm-3
07-01-2011,22:00,18,R,ugm-3,32,R,ugm-3,59,R,ugm-3
07-01-2011,23:00,11,R,ugm-3,32,R,ugm-3,50,R,ugm-3
07-01-2011,24:00,14,R,ugm-3,29,R,ugm-3,50,R,ugm-3
08-01-2011,01:00,13,R,ugm-3,23,R,ugm-3,42,R,ugm-3
08-01-2011,02:00,15,R,ugm-3,27,R,ugm-3,50,R,ugm-3
08-01-2011,03:00,19,R,ugm-3,34,R,ugm-3,63,R,ugm-3
08-01-2011,04:00,18,R,ugm-3,27,R,ugm-3,53,R,ugm-3
08-01-2011,05:00,9,R,ugm-3,15,R,ugm-3,29,R,ugm-3
08-01-2011,06:00,5,R,ugm-3,10,R,ugm-3,17,R,ugm-3
08-01-2011,07:00,3,R,ugm-3,10,R,ugm-3,13,R,ugm-3
08-01-2011,08:00,15,R,ugm-3,29,R,ugm-3,52,R,ugm-3
08-01-2011,09:00,25,R,ugm-3,27,R,ugm-3,65,R,ugm-3
08-01-2011,10:00,45,R,ugm-3,36,R,ugm-3,105,R,ugm-3
08-01-2011,11:00,36,R,ugm-3,34,R,ugm-3,90,R,ugm-3
08-01-2011,12:00,34,R,ugm-3,32,R,ugm-3,84,R,ugm-3
08-01-2011,13:00,51,R,ugm-3,34,R,ugm-3,113,R,ugm-3
08-01-2011,14:00,53,R,ugm-3,42,R,ugm-3,122,R,ugm-3
08-01-2011,15:00,65,R,ugm-3,50,R,ugm-3,149,R,ugm-3
08-01-2011,16:00,84,R,ugm-3,52,R,ugm-3,180,R,ugm-3
08-01-2011,17:00,128,R,ugm-3,65,R,ugm-3,260,R,ugm-3
08-01-2011,18:00,133,R,ugm-3,71,R,ugm-3,273,R,ugm-3
08-01-2011,19:00,209,R,ugm-3,76,R,ugm-3,395,R,ugm-3
08-01-2011,20:00,111,R,ugm-3,57,R,ugm-3,227,R,ugm-3
08-01-2011,21:00,53,R,ugm-3,55,R,ugm-3,136,R,ugm-3
08-01-2011,22:00,36,R,ugm-3,44,R,ugm-3,99,R,ugm-3
08-01-2011,23:00,41,R,ugm-3,53,R,ugm-3,117,R,ugm-3
08-01-2011,24:00,41,R,ugm-3,57,R,ugm-3,120,R,ugm-3
09-01-2011,01:00,40,R,ugm-3,55,R,ugm-3,117,R,ugm-3
09-01-2011,02:00,15,R,ugm-3,31,R,ugm-3,53,R,ugm-3
09-01-2011,03:00,19,R,ugm-3,32,R,ugm-3,61,R,ugm-3
09-01-2011,04:00,20,R,ugm-3,34,R,ugm-3,65,R,ugm-3
09-01-2011,05:00,15,R,ugm-3,31,R,ugm-3,53,R,ugm-3
09-01-2011,06:00,9,R,ugm-3,17,R,ugm-3,31,R,ugm-3
09-01-2011,07:00,4,R,ugm-3,13,R,ugm-3,19,R,ugm-3
09-01-2011,08:00,9,R,ugm-3,15,R,ugm-3,29,R,ugm-3
09-01-2011,09:00,4,R,ugm-3,13,R,ugm-3,19,R,ugm-3
09-01-2011,10:00,5,R,ugm-3,15,R,ugm-3,23,R,ugm-3
09-01-2011,11:00,18,R,ugm-3,25,R,ugm-3,52,R,ugm-3
09-01-2011,12:00,25,R,ugm-3,27,R,ugm-3,65,R,ugm-3
09-01-2011,13:00,25,R,ugm-3,31,R,ugm-3,69,R,ugm-3
09-01-2011,14:00,40,R,ugm-3,42,R,ugm-3,103,R,ugm-3
09-01-2011,15:00,38,R,ugm-3,42,R,ugm-3,99,R,ugm-3
09-01-2011,16:00,38,R,ugm-3,46,R,ugm-3,103,R,ugm-3
09-01-2011,17:00,64,R,ugm-3,55,R,ugm-3,153,R,ugm-3
09-01-2011,18:00,76,R,ugm-3,67,R,ugm-3,183,R,ugm-3
09-01-2011,19:00,78,R,ugm-3,61,R,ugm-3,180,R,ugm-3
09-01-2011,20:00,30,R,ugm-3,53,R,ugm-3,99,R,ugm-3
09-01-2011,21:00,21,R,ugm-3,38,R,ugm-3,71,R,ugm-3
09-01-2011,22:00,25,R,ugm-3,44,R,ugm-3,82,R,ugm-3
09-01-2011,23:00,28,R,ugm-3,53,R,ugm-3,96,R,ugm-3
09-01-2011,24:00,18,R,ugm-3,44,R,ugm-3,71,R,ugm-3
10-01-2011,01:00,18,R,ugm-3,46,R,ugm-3,73,R,ugm-3
10-01-2011,02:00,8,R,ugm-3,42,R,ugm-3,53,R,ugm-3
10-01-2011,03:00,10,R,ugm-3,40,R,ugm-3,55,R,ugm-3
10-01-2011,04:00,6,R,ugm-3,44,R,ugm-3,53,R,ugm-3
10-01-2011,05:00,9,R,ugm-3,53,R,ugm-3,67,R,ugm-3
10-01-2011,06:00,9,R,ugm-3,57,R,ugm-3,71,R,ugm-3
10-01-2011,07:00,6,R,ugm-3,38,R,ugm-3,48,R,ugm-3
10-01-2011,08:00,30,R,ugm-3,53,R,ugm-3,99,R,ugm-3
10-01-2011,09:00,49,R,ugm-3,50,R,ugm-3,124,R,ugm-3
10-01-2011,10:00,58,R,ugm-3,53,R,ugm-3,141,R,ugm-3
10-01-2011,11:00,91,R,ugm-3,69,R,ugm-3,208,R,ugm-3
10-01-2011,12:00,70,R,ugm-3,61,R,ugm-3,168,R,ugm-3
10-01-2011,13:00,83,R,ugm-3,63,R,ugm-3,189,R,ugm-3
10-01-2011,14:00,84,R,ugm-3,69,R,ugm-3,197,R,ugm-3
10-01-2011,15:00,83,R,ugm-3,61,R,ugm-3,187,R,ugm-3
10-01-2011,16:00,54,R,ugm-3,52,R,ugm-3,134,R,ugm-3
10-01-2011,17:00,44,R,ugm-3,44,R,ugm-3,111,R,ugm-3
10-01-2011,18:00,64,R,ugm-3,55,R,ugm-3,153,R,ugm-3
10-01-2011,19:00,64,R,ugm-3,52,R,ugm-3,149,R,ugm-3
10-01-2011,20:00,39,R,ugm-3,32,R,ugm-3,92,R,ugm-3
10-01-2011,21:00,26,R,ugm-3,38,R,ugm-3,78,R,ugm-3
10-01-2011,22:00,14,R,ugm-3,36,R,ugm-3,57,R,ugm-3
10-01-2011,23:00,6,R,ugm-3,23,R,ugm-3,32,R,ugm-3
10-01-2011,24:00,10,R,ugm-3,21,R,ugm-3,36,R,ugm-3
11-01-2011,01:00,5,R,ugm-3,15,R,ugm-3,23,R,ugm-3
11-01-2011,02:00,6,R,ugm-3,15,R,ugm-3,25,R,ugm-3
11-01-2011,03:00,4,R,ugm-3,13,R,ugm-3,19,R,ugm-3
11-01-2011,04:00,6,R,ugm-3,17,R,ugm-3,27,R,ugm-3
11-01-2011,05:00,3,R,ugm-3,19,R,ugm-3,23,R,ugm-3
11-01-2011,06:00,3,R,ugm-3,17,R,ugm-3,21,R,ugm-3
11-01-2011,07:00,8,R,ugm-3,19,R,ugm-3,31,R,ugm-3
11-01-2011,08:00,33,R,ugm-3,42,R,ugm-3,92,R,ugm-3
11-01-2011,09:00,85,R,ugm-3,59,R,ugm-3,189,R,ugm-3
11-01-2011,10:00,151,R,ugm-3,67,R,ugm-3,298,R,ugm-3
11-01-2011,11:00,113,R,ugm-3,55,R,ugm-3,227,R,ugm-3
11-01-2011,12:00,51,R,ugm-3,42,R,ugm-3,120,R,ugm-3
11-01-2011,13:00,79,R,ugm-3,44,R,ugm-3,164,R,ugm-3
11-01-2011,14:00,84,R,ugm-3,48,R,ugm-3,176,R,ugm-3
11-01-2011,15:00,101,R,ugm-3,53,R,ugm-3,208,R,ugm-3
11-01-2011,16:00,103,R,ugm-3,57,R,ugm-3,214,R,ugm-3
11-01-2011,17:00,103,R,ugm-3,65,R,ugm-3,222,R,ugm-3
11-01-2011,18:00,85,R,ugm-3,65,R,ugm-3,195,R,ugm-3
11-01-2011,19:00,114,R,ugm-3,69,R,ugm-3,243,R,ugm-3
11-01-2011,20:00,128,R,ugm-3,73,R,ugm-3,267,R,ugm-3
11-01-2011,21:00,86,R,ugm-3,65,R,ugm-3,197,R,ugm-3
11-01-2011,22:00,74,R,ugm-3,65,R,ugm-3,178,R,ugm-3
11-01-2011,23:00,48,R,ugm-3,55,R,ugm-3,128,R,ugm-3
11-01-2011,24:00,23,R,ugm-3,42,R,ugm-3,76,R,ugm-3
12-01-2011,01:00,21,R,ugm-3,48,R,ugm-3,80,R,ugm-3
12-01-2011,02:00,9,R,ugm-3,42,R,ugm-3,55,R,ugm-3
12-01-2011,03:00,5,R,ugm-3,34,R,ugm-3,42,R,ugm-3
12-01-2011,04:00,6,R,ugm-3,38,R,ugm-3,48,R,ugm-3
12-01-2011,05:00,4,R,ugm-3,40,R,ugm-3,46,R,ugm-3
12-01-2011,06:00,5,R,ugm-3,42,R,ugm-3,50,R,ugm-3
12-01-2011,07:00,6,R,ugm-3,21,R,ugm-3,31,R,ugm-3
12-01-2011,08:00,19,R,ugm-3,29,R,ugm-3,57,R,ugm-3
12-01-2011,09:00,40,R,ugm-3,34,R,ugm-3,96,R,ugm-3
12-01-2011,10:00,69,R,ugm-3,53,R,ugm-3,159,R,ugm-3
12-01-2011,11:00,60,R,ugm-3,46,R,ugm-3,138,R,ugm-3
12-01-2011,12:00,76,R,ugm-3,55,R,ugm-3,172,R,ugm-3
12-01-2011,13:00,89,R,ugm-3,59,R,ugm-3,195,R,ugm-3
12-01-2011,14:00,93,R,ugm-3,57,R,ugm-3,199,R,ugm-3
12-01-2011,15:00,105,R,ugm-3,59,R,ugm-3,220,R,ugm-3
12-01-2011,16:00,116,R,ugm-3,65,R,ugm-3,243,R,ugm-3
12-01-2011,17:00,109,R,ugm-3,63,R,ugm-3,229,R,ugm-3
12-01-2011,18:00,105,R,ugm-3,63,R,ugm-3,223,R,ugm-3
12-01-2011,19:00,124,R,ugm-3,65,R,ugm-3,254,R,ugm-3
12-01-2011,20:00,66,R,ugm-3,57,R,ugm-3,159,R,ugm-3
12-01-2011,21:00,43,R,ugm-3,46,R,ugm-3,111,R,ugm-3
12-01-2011,22:00,31,R,ugm-3,34,R,ugm-3,82,R,ugm-3
12-01-2011,23:00,26,R,ugm-3,36,R,ugm-3,76,R,ugm-3
12-01-2011,24:00,23,R,ugm-3,34,R,ugm-3,69,R,ugm-3
13-01-2011,01:00,15,R,ugm-3,23,R,ugm-3,46,R,ugm-3
13-01-2011,02:00,8,R,ugm-3,15,R,ugm-3,27,R,ugm-3
13-01-2011,03:00,5,R,ugm-3,11,R,ugm-3,19,R,ugm-3
13-01-2011,04:00,3,R,ugm-3,8,R,ugm-3,11,R,ugm-3
13-01-2011,05:00,4,R,ugm-3,8,R,ugm-3,13,R,ugm-3
13-01-2011,06:00,4,R,ugm-3,8,R,ugm-3,13,R,ugm-3
13-01-2011,07:00,15,R,ugm-3,15,R,ugm-3,38,R,ugm-3
13-01-2011,08:00,14,R,ugm-3,17,R,ugm-3,38,R,ugm-3
13-01-2011,09:00,39,R,ugm-3,29,R,ugm-3,88,R,ugm-3
13-01-2011,10:00,39,R,ugm-3,38,R,ugm-3,97,R,ugm-3
13-01-2011,11:00,45,R,ugm-3,38,R,ugm-3,107,R,ugm-3
13-01-2011,12:00,53,R,ugm-3,40,R,ugm-3,120,R,ugm-3
13-01-2011,13:00,60,R,ugm-3,46,R,ugm-3,138,R,ugm-3
13-01-2011,14:00,51,R,ugm-3,46,R,ugm-3,124,R,ugm-3
13-01-2011,15:00,74,R,ugm-3,52,R,ugm-3,164,R,ugm-3
13-01-2011,16:00,71,R,ugm-3,48,R,ugm-3,157,R,ugm-3
13-01-2011,17:00,74,R,ugm-3,53,R,ugm-3,166,R,ugm-3
13-01-2011,18:00,101,R,ugm-3,55,R,ugm-3,210,R,ugm-3
13-01-2011,19:00,140,R,ugm-3,61,R,ugm-3,275,R,ugm-3
13-01-2011,20:00,110,R,ugm-3,55,R,ugm-3,223,R,ugm-3
13-01-2011,21:00,74,R,ugm-3,50,R,ugm-3,162,R,ugm-3
13-01-2011,22:00,34,R,ugm-3,44,R,ugm-3,96,R,ugm-3
13-01-2011,23:00,26,R,ugm-3,32,R,ugm-3,73,R,ugm-3
13-01-2011,24:00,20,R,ugm-3,27,R,ugm-3,57,R,ugm-3
14-01-2011,01:00,14,R,ugm-3,13,R,ugm-3,34,R,ugm-3
14-01-2011,02:00,5,R,ugm-3,10,R,ugm-3,17,R,ugm-3
14-01-2011,03:00,5,R,ugm-3,8,R,ugm-3,15,R,ugm-3
14-01-2011,04:00,9,R,ugm-3,10,R,ugm-3,23,R,ugm-3
14-01-2011,05:00,5,R,ugm-3,10,R,ugm-3,17,R,ugm-3
14-01-2011,06:00,4,R,ugm-3,8,R,ugm-3,13,R,ugm-3
14-01-2011,07:00,3,R,ugm-3,8,R,ugm-3,11,R,ugm-3
14-01-2011,08:00,14,R,ugm-3,21,R,ugm-3,42,R,ugm-3
14-01-2011,09:00,39,R,ugm-3,40,R,ugm-3,99,R,ugm-3
14-01-2011,10:00,50,R,ugm-3,46,R,ugm-3,122,R,ugm-3
14-01-2011,11:00,85,R,ugm-3,57,R,ugm-3,187,R,ugm-3
14-01-2011,12:00,58,R,ugm-3,52,R,ugm-3,139,R,ugm-3
14-01-2011,13:00,75,R,ugm-3,57,R,ugm-3,172,R,ugm-3
14-01-2011,14:00,84,R,ugm-3,59,R,ugm-3,187,R,ugm-3
14-01-2011,15:00,86,R,ugm-3,55,R,ugm-3,187,R,ugm-3
14-01-2011,16:00,83,R,ugm-3,53,R,ugm-3,180,R,ugm-3
14-01-2011,17:00,74,R,ugm-3,59,R,ugm-3,172,R,ugm-3
14-01-2011,18:00,73,R,ugm-3,55,R,ugm-3,166,R,ugm-3
14-01-2011,19:00,65,R,ugm-3,53,R,ugm-3,153,R,ugm-3
14-01-2011,20:00,65,R,ugm-3,53,R,ugm-3,153,R,ugm-3
14-01-2011,21:00,38,R,ugm-3,46,R,ugm-3,103,R,ugm-3
14-01-2011,22:00,26,R,ugm-3,42,R,ugm-3,82,R,ugm-3
14-01-2011,23:00,23,R,ugm-3,40,R,ugm-3,74,R,ugm-3
14-01-2011,24:00,16,R,ugm-3,36,R,ugm-3,61,R,ugm-3
15-01-2011,01:00,21,R,ugm-3,32,R,ugm-3,65,R,ugm-3
15-01-2011,02:00,18,R,ugm-3,34,R,ugm-3,61,R,ugm-3
15-01-2011,03:00,15,R,ugm-3,27,R,ugm-3,50,R,ugm-3
15-01-2011,04:00,14,R,ugm-3,23,R,ugm-3,44,R,ugm-3
15-01-2011,05:00,18,R,ugm-3,23,R,ugm-3,50,R,ugm-3
15-01-2011,06:00,3,R,ugm-3,8,R,ugm-3,11,R,ugm-3
15-01-2011,07:00,1,R,ugm-3,10,R,ugm-3,11,R,ugm-3
15-01-2011,08:00,9,R,ugm-3,11,R,ugm-3,25,R,ugm-3
15-01-2011,09:00,26,R,ugm-3,29,R,ugm-3,69,R,ugm-3
15-01-2011,10:00,34,R,ugm-3,23,R,ugm-3,74,R,ugm-3
15-01-2011,11:00,31,R,ugm-3,27,R,ugm-3,74,R,ugm-3
15-01-2011,12:00,43,R,ugm-3,23,R,ugm-3,88,R,ugm-3
15-01-2011,13:00,50,R,ugm-3,40,R,ugm-3,117,R,ugm-3
15-01-2011,14:00,48,R,ugm-3,40,R,ugm-3,113,R,ugm-3
15-01-2011,15:00,68,R,ugm-3,50,R,ugm-3,153,R,ugm-3
15-01-2011,16:00,98,R,ugm-3,53,R,ugm-3,202,R,ugm-3
15-01-2011,17:00,64,R,ugm-3,42,R,ugm-3,139,R,ugm-3
15-01-2011,18:00,69,R,ugm-3,53,R,ugm-3,159,R,ugm-3
15-01-2011,19:00,75,R,ugm-3,53,R,ugm-3,168,R,ugm-3
15-01-2011,20:00,41,R,ugm-3,34,R,ugm-3,97,R,ugm-3
15-01-2011,21:00,23,R,ugm-3,29,R,ugm-3,63,R,ugm-3
15-01-2011,22:00,21,R,ugm-3,31,R,ugm-3,63,R,ugm-3
15-01-2011,23:00,16,R,ugm-3,29,R,ugm-3,53,R,ugm-3
15-01-2011,24:00,18,R,ugm-3,23,R,ugm-3,50,R,ugm-3
16-01-2011,01:00,14,R,ugm-3,23,R,ugm-3,44,R,ugm-3
16-01-2011,02:00,10,R,ugm-3,17,R,ugm-3,32,R,ugm-3
16-01-2011,03:00,10,R,ugm-3,21,R,ugm-3,36,R,ugm-3
16-01-2011,04:00,11,R,ugm-3,21,R,ugm-3,38,R,ugm-3
16-01-2011,05:00,11,R,ugm-3,23,R,ugm-3,40,R,ugm-3
16-01-2011,06:00,3,R,ugm-3,10,R,ugm-3,13,R,ugm-3
16-01-2011,07:00,1,R,ugm-3,6,R,ugm-3,8,R,ugm-3
16-01-2011,08:00,4,R,ugm-3,8,R,ugm-3,13,R,ugm-3
16-01-2011,09:00,4,R,ugm-3,8,R,ugm-3,13,R,ugm-3
16-01-2011,10:00,4,R,ugm-3,11,R,ugm-3,17,R,ugm-3
16-01-2011,11:00,9,R,ugm-3,11,R,ugm-3,25,R,ugm-3
16-01-2011,12:00,14,R,ugm-3,15,R,ugm-3,36,R,ugm-3
16-01-2011,13:00,20,R,ugm-3,19,R,ugm-3,50,R,ugm-3
16-01-2011,14:00,28,R,ugm-3,27,R,ugm-3,69,R,ugm-3
16-01-2011,15:00,24,R,ugm-3,25,R,ugm-3,61,R,ugm-3
16-01-2011,16:00,25,R,ugm-3,25,R,ugm-3,63,R,ugm-3
16-01-2011,17:00,38,R,ugm-3,32,R,ugm-3,90,R,ugm-3
16-01-2011,18:00,26,R,ugm-3,31,R,ugm-3,71,R,ugm-3
16-01-2011,19:00,26,R,ugm-3,21,R,ugm-3,61,R,ugm-3
16-01-2011,20:00,11,R,ugm-3,19,R,ugm-3,36,R,ugm-3
16-01-2011,21:00,10,R,ugm-3,19,R,ugm-3,34,R,ugm-3
16-01-2011,22:00,21,R,ugm-3,32,R,ugm-3,65,R,ugm-3
16-01-2011,23:00,13,R,ugm-3,25,R,ugm-3,44,R,ugm-3
16-01-2011,24:00,18,R,ugm-3,27,R,ugm-3,53,R,ugm-3
17-01-2011,01:00,11,R,ugm-3,23,R,ugm-3,40,R,ugm-3
17-01-2011,02:00,9,R,ugm-3,21,R,ugm-3,34,R,ugm-3
17-01-2011,03:00,6,R,ugm-3,15,R,ugm-3,25,R,ugm-3
17-01-2011,04:00,5,R,ugm-3,15,R,ugm-3,23,R,ugm-3
17-01-2011,05:00,9,R,ugm-3,29,R,ugm-3,42,R,ugm-3
17-01-2011,06:00,1,R,ugm-3,19,R,ugm-3,21,R,ugm-3
17-01-2011,07:00,10,R,ugm-3,29,R,ugm-3,44,R,ugm-3
17-01-2011,08:00,40,R,ugm-3,52,R,ugm-3,113,R,ugm-3
17-01-2011,09:00,110,R,ugm-3,57,R,ugm-3,225,R,ugm-3
17-01-2011,10:00,154,R,ugm-3,69,R,ugm-3,304,R,ugm-3
17-01-2011,11:00,183,R,ugm-3,84,R,ugm-3,363,R,ugm-3
17-01-2011,12:00,64,R,ugm-3,61,R,ugm-3,159,R,ugm-3
17-01-2011,13:00,38,R,ugm-3,53,R,ugm-3,111,R,ugm-3
17-01-2011,14:00,44,R,ugm-3,52,R,ugm-3,118,R,ugm-3
17-01-2011,15:00,50,R,ugm-3,52,R,ugm-3,128,R,ugm-3
17-01-2011,16:00,50,R,ugm-3,53,R,ugm-3,130,R,ugm-3
17-01-2011,17:00,105,R,ugm-3,71,R,ugm-3,231,R,ugm-3
17-01-2011,18:00,129,R,ugm-3,78,R,ugm-3,275,R,ugm-3
17-01-2011,19:00,175,R,ugm-3,86,R,ugm-3,353,R,ugm-3
17-01-2011,20:00,133,R,ugm-3,76,R,ugm-3,279,R,ugm-3
17-01-2011,21:00,90,R,ugm-3,71,R,ugm-3,208,R,ugm-3
17-01-2011,22:00,51,R,ugm-3,65,R,ugm-3,143,R,ugm-3
17-01-2011,23:00,58,R,ugm-3,65,R,ugm-3,153,R,ugm-3
17-01-2011,24:00,116,R,ugm-3,73,R,ugm-3,250,R,ugm-3
18-01-2011,01:00,66,R,ugm-3,65,R,ugm-3,166,R,ugm-3
18-01-2011,02:00,44,R,ugm-3,59,R,ugm-3,126,R,ugm-3
18-01-2011,03:00,18,R,ugm-3,52,R,ugm-3,78,R,ugm-3
18-01-2011,04:00,14,R,ugm-3,52,R,ugm-3,73,R,ugm-3
18-01-2011,05:00,9,R,ugm-3,52,R,ugm-3,65,R,ugm-3
18-01-2011,06:00,13,R,ugm-3,53,R,ugm-3,73,R,ugm-3
18-01-2011,07:00,8,R,ugm-3,50,R,ugm-3,61,R,ugm-3
18-01-2011,08:00,39,R,ugm-3,57,R,ugm-3,117,R,ugm-3
18-01-2011,09:00,89,R,ugm-3,61,R,ugm-3,197,R,ugm-3
18-01-2011,10:00,160,R,ugm-3,76,R,ugm-3,321,R,ugm-3
18-01-2011,11:00,163,R,ugm-3,76,R,ugm-3,325,R,ugm-3
18-01-2011,12:00,153,R,ugm-3,69,R,ugm-3,302,R,ugm-3
18-01-2011,13:00,96,R,ugm-3,63,R,ugm-3,210,R,ugm-3
18-01-2011,14:00,,,,,,,,,
18-01-2011,15:00,118,R,ugm-3,69,R,ugm-3,248,R,ugm-3
18-01-2011,16:00,118,R,ugm-3,73,R,ugm-3,252,R,ugm-3
18-01-2011,17:00,116,R,ugm-3,74,R,ugm-3,252,R,ugm-3
18-01-2011,18:00,119,R,ugm-3,71,R,ugm-3,252,R,ugm-3
18-01-2011,19:00,91,R,ugm-3,69,R,ugm-3,208,R,ugm-3
18-01-2011,20:00,84,R,ugm-3,67,R,ugm-3,195,R,ugm-3
18-01-2011,21:00,44,R,ugm-3,59,R,ugm-3,126,R,ugm-3
18-01-2011,22:00,33,R,ugm-3,55,R,ugm-3,105,R,ugm-3
18-01-2011,23:00,26,R,ugm-3,50,R,ugm-3,90,R,ugm-3
18-01-2011,24:00,35,R,ugm-3,53,R,ugm-3,107,R,ugm-3
19-01-2011,01:00,16,R,ugm-3,40,R,ugm-3,65,R,ugm-3
19-01-2011,02:00,13,R,ugm-3,31,R,ugm-3,50,R,ugm-3
19-01-2011,03:00,10,R,ugm-3,31,R,ugm-3,46,R,ugm-3
19-01-2011,04:00,6,R,ugm-3,23,R,ugm-3,32,R,ugm-3
19-01-2011,05:00,5,R,ugm-3,27,R,ugm-3,34,R,ugm-3
19-01-2011,06:00,5,R,ugm-3,25,R,ugm-3,32,R,ugm-3
19-01-2011,07:00,6,R,ugm-3,25,R,ugm-3,34,R,ugm-3
19-01-2011,08:00,36,R,ugm-3,42,R,ugm-3,97,R,ugm-3
19-01-2011,09:00,103,R,ugm-3,55,R,ugm-3,212,R,ugm-3
19-01-2011,10:00,119,R,ugm-3,61,R,ugm-3,243,R,ugm-3
19-01-2011,11:00,185,R,ugm-3,69,R,ugm-3,351,R,ugm-3
19-01-2011,12:00,170,R,ugm-3,69,R,ugm-3,329,R,ugm-3
19-01-2011,13:00,,,,,,,,,
19-01-2011,14:00,,,,,,,,,
19-01-2011,15:00,94,R,ugm-3,61,R,ugm-3,204,R,ugm-3
19-01-2011,16:00,63,R,ugm-3,55,R,ugm-3,151,R,ugm-3
19-01-2011,17:00,74,R,ugm-3,59,R,ugm-3,172,R,ugm-3
19-01-2011,18:00,120,R,ugm-3,73,R,ugm-3,256,R,ugm-3
19-01-2011,19:00,121,R,ugm-3,78,R,ugm-3,264,R,ugm-3
19-01-2011,20:00,125,R,ugm-3,78,R,ugm-3,269,R,ugm-3
19-01-2011,21:00,74,R,ugm-3,71,R,ugm-3,183,R,ugm-3
19-01-2011,22:00,56,R,ugm-3,65,R,ugm-3,151,R,ugm-3
19-01-2011,23:00,58,R,ugm-3,65,R,ugm-3,153,R,ugm-3
19-01-2011,24:00,56,R,ugm-3,63,R,ugm-3,149,R,ugm-3
20-01-2011,01:00,29,R,ugm-3,52,R,ugm-3,96,R,ugm-3
20-01-2011,02:00,11,R,ugm-3,40,R,ugm-3,57,R,ugm-3
20-01-2011,03:00,6,R,ugm-3,36,R,ugm-3,46,R,ugm-3
20-01-2011,04:00,5,R,ugm-3,31,R,ugm-3,38,R,ugm-3
20-01-2011,05:00,4,R,ugm-3,27,R,ugm-3,32,R,ugm-3
20-01-2011,06:00,4,R,ugm-3,25,R,ugm-3,31,R,ugm-3
20-01-2011,07:00,16,R,ugm-3,29,R,ugm-3,53,R,ugm-3
20-01-2011,08:00,21,R,ugm-3,32,R,ugm-3,65,R,ugm-3
20-01-2011,09:00,50,R,ugm-3,42,R,ugm-3,118,R,ugm-3
20-01-2011,10:00,59,R,ugm-3,46,R,ugm-3,136,R,ugm-3
20-01-2011,11:00,69,R,ugm-3,48,R,ugm-3,153,R,ugm-3
20-01-2011,12:00,73,R,ugm-3,48,R,ugm-3,159,R,ugm-3
20-01-2011,13:00,71,R,ugm-3,44,R,ugm-3,153,R,ugm-3
20-01-2011,14:00,70,R,ugm-3,48,R,ugm-3,155,R,ugm-3
20-01-2011,15:00,78,R,ugm-3,48,R,ugm-3,166,R,ugm-3
20-01-2011,16:00,73,R,ugm-3,52,R,ugm-3,162,R,ugm-3